Location: Shenandoah County Park
(38.9356°N, 78.4524°W)
Time: 00:36:54
(UTC-04:00)

Vanguard 3 - Visible Passes

Search period start: 13 July 2024 00:00
Search period end: 23 July 2024 00:00
Orbit: 508 x 3231 km, 33.4° (Epoch: 12 July)

Date Brightness Start Highest point End Pass type
(mag) Time Alt. Az. Time Alt. Az. Time Alt. Az.
13 Jul 10.1 01:58:51 36° SSE 02:02:55 39° SE 02:20:04 10° E visible
13 Jul 10.1 04:02:59 20° WSW 04:17:51 66° SSE 04:35:58 10° E visible
14 Jul 10.5 00:44:14 25° SE 00:44:14 25° SE 00:57:05 10° E visible
14 Jul 10.0 02:48:21 35° SSW 02:56:42 55° SSE 03:15:17 10° E visible
14 Jul 10.1 04:53:31 10° WSW 05:12:40 73° S 05:30:10 10° E visible
14 Jul 11.0 23:29:34 10° ESE 23:29:34 10° ESE 23:29:51 10° ESE visible
15 Jul 10.0 01:33:41 39° SSE 01:36:19 40° SE 01:53:36 10° E visible
15 Jul 10.0 03:37:49 23° WSW 03:51:05 67° SSE 04:09:57 10° E visible
16 Jul 10.4 00:18:59 25° ESE 00:18:59 25° ESE 00:30:27 10° E visible
16 Jul 9.9 02:23:06 40° SSW 02:30:00 56° SSE 02:48:54 10° E visible
16 Jul 10.1 04:27:25 10° WSW 04:45:55 73° S 05:04:18 10° E visible
17 Jul 9.9 01:08:21 41° SSE 01:09:48 41° SE 01:26:56 10° E visible
17 Jul 9.9 03:12:28 26° WSW 03:24:20 68° SSE 03:43:43 10° E visible
17 Jul 10.1 05:21:41 10° W 05:40:51 73° S 05:58:20 10° ESE visible
17 Jul 10.4 23:53:33 24° ESE 23:53:33 24° ESE 00:03:40 10° E visible
18 Jul 9.7 01:57:40 43° SSW 02:03:22 57° SSE 02:22:19 10° E visible
18 Jul 10.0 04:01:46 11° WSW 04:19:07 74° S 04:38:14 10° E visible
19 Jul 9.7 00:42:49 41° SSE 00:43:23 42° SE 01:00:06 10° E visible
19 Jul 9.8 02:46:56 28° WSW 02:57:37 68° SSE 03:17:16 10° E visible
19 Jul 10.1 04:55:34 10° W 05:14:03 72° S 05:32:24 10° ESE visible
19 Jul 10.3 23:27:55 24° ESE 23:27:55 24° ESE 23:36:47 10° E visible
20 Jul 9.6 01:32:01 45° SSW 01:36:50 57° SSE 01:55:33 10° E visible
20 Jul 9.9 03:36:07 11° WSW 03:52:20 74° S 04:11:56 10° E visible
21 Jul 9.6 00:17:02 42° SE 00:17:04 42° SE 00:33:09 10° E visible
21 Jul 9.7 02:21:07 28° WSW 02:30:59 69° SSE 02:50:38 10° E visible
21 Jul 10.0 04:29:37 10° W 04:47:11 71° S 05:06:13 10° ESE visible
21 Jul 10.1 23:01:56 23° ESE 23:01:56 23° ESE 23:09:50 10° E visible
22 Jul 9.5 01:06:00 45° SSW 01:10:25 58° SSE 01:28:38 10° E visible
22 Jul 9.8 03:10:05 10° W 03:25:35 73° S 03:45:26 10° E visible
22 Jul 10.1 05:23:47 10° W 05:41:52 63° SSW 05:59:55 10° SE visible
22 Jul10.221:46:37E21:46:37E21:33:23SSEvisible
